sat.trackr.live / text

‹ back to catalog

SHIJIAN-6 03B (SJ-6 03B)

NORAD 33409 · 2008-053B

PAYLOAD ACTIVE UNKNOWN

§ Identity

Operator
Country
PRC
Launch date
2008-10-25
Launch site
TAISC
Launch vehicle
Mass (kg)
RCS (m²)
2.35

External: N2YO · Heavens-Above · Gunter

§ Orbital elements

Epoch: 2026-09-10T05:40:10.263360Z

Period
95.71 min
Inclination
97.8567°
Eccentricity
0.0020904
Mean motion
15.04491927 rev/d
Perigee alt
538.6 km
Apogee alt
567.6 km
Semi-major
6,931.2 km
B*
3.0406e-5
RAAN
274.5430°
Arg perigee
111.6063°
Mean anomaly
248.7392°
Rev number
97,553

§ Raw data

SHIJIAN-6 03B (SJ-6 03B)1 33409U 08053B   26253.23622990  .00000362  00000+0  30406-4 0  99932 33409  97.8567 274.5430 0020904 111.6063 248.7392 15.04491927975537

JSON: /api/v1/satellites/33409 · /tle

For live sub-satellite position, see the globe view (requires WebGL).

§ Visibility from observer

Set your observer location to see the next 7 days of passes ≥ 10°. The values pass through the URL so the page stays shareable.

No JS? Fill the form by hand. The geolocation button needs JavaScript.

§ Radio — SatNOGS DB

ModeDescriptionDownlinkUplink
FM S-band telemetry 2.251 GHz

1 transmitter · refreshed weekly from db.satnogs.org